Location: Ferques
(50.8300°N, 1.7599°E)
Time: 00:05:38
(UTC+00:00)

CZ-4B R/B - Pass Details

Date: 19 May 2025
Orbit: 449 x 582 km, 97.8° (Epoch: 18 June)

Event Time Altitude Azimuth Distance (km) Brightness Sun altitude
Rises 20:16:50 0° 176° (S) 2,774 6.0 -5.2°
Reaches altitude 10° 20:19:02 10° 180° (S) 1,868 5.1 -5.5°
Maximum altitude 20:23:01 55° 259° (W) 679 3.6 -6.0°
Drops below altitude 10° 20:26:53 10° 338° (NNW) 1,817 6.7 -6.4°
Sets 20:29:01 0° 343° (NNW) 2,692 7.5 -6.7°
